067  
ASUS44 KOUN 241110  
RWROK  
 
WEATHER ROUNDUP FOR OKLAHOMA  
NATIONAL WEATHER SERVICE NORMAN OK  
600 AM CDT TUE MAY 24 2016  
 
NOTE: "FAIR" INDICATES FEW OR NO CLOUDS BELOW 12,000 FEET WITH NO  
SIGNIFICANT WEATHER AND/OR S TO VISIBILITY
.  
 
OKZ001>007-009>012-014-015-017-241200-  
NORTHWEST OKLAHOMA AND THE PANHANDLE  
 
CITY SKY/WX TMP DP RH WIND PRES REMARKS
 
GAGE CLEAR 69 66 90 S20 29.79R  
GUYMON CLEAR 67 63 87 S23G30 29.75F  
ENID/WOODRING PTCLDY 70 70 100 S5 29.78R FOG  

 
 
OKZ016-021>023-033>039-044-045-241200-  
SOUTHWEST OKLAHOMA  
 
CITY SKY/WX TMP DP RH WIND PRES REMARKS
 
LAWTON/REGL CLOUDY 67 64 90 S8 29.86R  
LAWTON/FT SILL CLOUDY 65 65 100 S8 29.85R  
FREDERICK CLEAR 67 66 97 SE8 29.83S  
CLINTON CLEAR 66 57 72 S20 29.84R  
HOBART CLEAR 65 61 87 S7 29.86R  
ALTUS AFB CLEAR 65 62 91 SE9 29.84R  

 
 
OKZ018>020-024>031-241200-  
CENTRAL OKLAHOMA  
 
CITY SKY/WX TMP DP RH WIND PRES REMARKS
 
OKLAHOMA CITY CLOUDY 74 67 78 S14G24 29.76F  
OKC/WILEY POST CLOUDY 73 69 87 SE13 29.76F  
OKC/TINKER AFB CLOUDY 73 69 87 S13G20 29.76F  
STILLWATER CLOUDY 70 69 97 S9 29.79S  
GUTHRIE CLOUDY 73 69 87 S15G22 29.77S  

 
 
OKZ008-013-054>072-241200-  
NORTHEAST OKLAHOMA  
 
CITY SKY/WX TMP DP RH WIND PRES REMARKS
 
TULSA CLOUDY 70 66 87 SE10 29.84S  
TULSA/JONES CLOUDY 69 65 86 S9 29.85S  
PONCA CITY CLOUDY 69 66 90 SE8 29.79F  
BARTLESVILLE CLOUDY 68 64 87 SE7 29.86S  
MUSKOGEE CLOUDY 70 65 84 SE8 29.90R  

 
 
OKZ032-040>043-046>053-073>077-241200-  
SOUTH CENTRAL/SOUTHEAST OKLAHOMA  
 
CITY SKY/WX TMP DP RH WIND PRES REMARKS
 
ARDMORE/DWNTWN TSTM 64 63 94 NW3G29 29.95R  
MCALESTER MOCLDY 73 68 84 S8 29.89R  

 
 
 
 
CLICK HERE TO GO TO PREVIOUS BULLETINS.

The Nexlab OK Page Main Text Page